Wautoma, WI

9:12 PM CST on December 11, 2017 (GMT -0600)
Wautoma

Weather History for KY50 - November, 2012

Change the Weather History Date:

Tuesday, November 13, 2012

  Actual Average (KPCZ) Record (KPCZ)
Temperature  
Mean Temperature 28 °F -  
Max Temperature 37 °F 40 °F 64 °F (1952)
Min Temperature 19 °F 24 °F -1 °F (1986)
Degree Days  
Heating Degree Days 37    
Moisture  
Dew Point 19 °F    
Average Humidity 72    
Maximum Humidity 92    
Minimum Humidity 45    
Precipitation  
Precipitation 0.00 in - - ()
Sea Level Pressure  
Sea Level Pressure 30.41 in    
Wind  
Wind Speed 4 mph (WSW)    
Max Wind Speed 10 mph    
Max Gust Speed -    
Visibility 10 miles    
Events      
Averages and records for this station are not official NWS values.
T = Trace of Precipitation, MM = Missing Value Source: NWS Daily Summary

Daily Weather History Graph

Daily Weather History Graph

Search for Another Location

Airport or City:

Trip Planner

Search our weather history database for the weather conditions in past years. The results will help you decide how hot, cold, wet, or windy it might be!

Date:

Astronomy

Nov. 13, 2012 Rise Set
Actual Time 6:50 AM CST 4:32 PM CST
Civil Twilight 6:19 AM CST 5:03 PM CST
Nautical Twilight 5:44 AM CST 5:38 PM CST
Astronomical Twilight 5:10 AM CST 6:12 PM CST
Moon 6:28 AM CST (11/13) 4:24 PM CST (11/13)
Length of Visible Light 10h 44m
Length of Day
9h 41m
Waning Crescent, 0% of the Moon is Illuminated
Nov 13
Waning Crescent
Nov 13
New
Nov 20
First Quarter
Nov 28
Full
Dec 6
Last Quarter

Hourly Weather History & Observations

Time (CST) Temp. Windchill Dew Point Humidity Pressure Visibility Wind Dir Wind Speed Gust Speed Precip Events Conditions
12:56 AM 25.2 °F 15.1 °F 15.1 °F 66% 30.32 in 10.0 mi WNW 10.4 mph - N/A   Overcast
1:03 AM 26.6 °F 17.5 °F 15.8 °F 64% 30.29 in 10.0 mi WNW 9.2 mph - N/A   Overcast
1:56 AM 25.2 °F 15.7 °F 15.1 °F 66% 30.34 in 10.0 mi WNW 9.2 mph - N/A   Overcast
2:16 AM 24.8 °F - 15.8 °F 69% 30.31 in 10.0 mi Calm Calm - N/A   Scattered Clouds
2:56 AM 23.0 °F - 16.2 °F 75% 30.35 in 10.0 mi Calm Calm - N/A   Scattered Clouds
3:56 AM 22.1 °F 14.7 °F 16.2 °F 78% 30.37 in 10.0 mi WSW 5.8 mph - N/A   Clear
4:56 AM 21.0 °F - 16.2 °F 81% 30.39 in 10.0 mi Calm Calm - N/A   Clear
5:56 AM 19.0 °F - 15.1 °F 85% 30.41 in 10.0 mi Calm Calm - N/A   Clear
6:56 AM 19.0 °F - 16.2 °F 89% 30.43 in 10.0 mi Calm Calm - N/A   Clear
7:56 AM 21.0 °F - 17.1 °F 85% 30.46 in 10.0 mi Calm Calm - N/A   Clear
8:56 AM 25.2 °F - 18.1 °F 75% 30.46 in 10.0 mi Calm Calm - N/A   Clear
9:56 AM 28.0 °F 20.8 °F 18.1 °F 66% 30.47 in 10.0 mi WSW 6.9 mph - N/A   Clear
10:56 AM 31.1 °F - 19.0 °F 61% 30.46 in 10.0 mi Calm Calm - N/A   Clear
11:56 AM 34.0 °F - 19.0 °F 54% 30.43 in 10.0 mi Calm Calm - N/A   Clear
12:56 PM 36.0 °F - 19.0 °F 50% 30.41 in 10.0 mi Calm Calm - N/A   Clear
1:56 PM 37.9 °F 31.5 °F 20.1 °F 49% 30.41 in 10.0 mi SW 9.2 mph - N/A   Clear
2:56 PM 37.9 °F 33.5 °F 18.1 °F 45% 30.42 in 10.0 mi SSW 5.8 mph - N/A   Clear
3:56 PM 36.9 °F - 19.0 °F 49% 30.42 in 10.0 mi Calm Calm - N/A   Clear
4:56 PM 32.0 °F - 20.1 °F 62% 30.43 in 10.0 mi Calm Calm - N/A   Clear
5:56 PM 30.0 °F - 22.1 °F 72% 30.43 in 10.0 mi Calm Calm - N/A   Clear
6:56 PM 27.1 °F - 23.0 °F 84% 30.44 in 10.0 mi Calm Calm - N/A   Clear
7:56 PM 26.1 °F - 22.1 °F 85% 30.44 in 10.0 mi Calm Calm - N/A   Clear
8:56 PM 26.1 °F - 23.0 °F 88% 30.45 in 10.0 mi Calm Calm - N/A   Clear
9:56 PM 26.1 °F - 23.0 °F 88% 30.45 in 10.0 mi Calm Calm - N/A   Clear
10:56 PM 27.1 °F - 24.1 °F 88% 30.45 in 10.0 mi Calm Calm - N/A   Overcast
11:56 PM 27.1 °F - 25.2 °F 92% 30.46 in 10.0 mi Calm Calm - N/A   Mostly Cloudy